FW5402 Weather Reports


time (UTC)temp
C
wind
direction
speed
KPH
gust
KPH
rain 1hr
cm
rain 24hr
cm
rain mn
cm
humidity
%
barometer
mb
20260505083029 19 0 0.0 6.4 0.00 0.00 0.00 74 1006.8
20260505081533 19 131 0.0 3.2 0.00 0.00 0.00 74 1006.9
20260505080035 18 0 0.0 0.0 0.00 0.00 0.00 74 1007.2
20260505074528 18 0 0.0 0.0 0.00 0.00 0.00 74 1007.3
20260505073043 18 0 0.0 0.0 0.00 0.00 0.00 73 1007.4
20260505071530 18 0 0.0 0.0 0.00 0.00 0.00 73 1007.3
20260505070030 18 139 0.0 4.8 0.00 0.00 0.00 72 1007.7
20260505064539 18 0 0.0 0.0 0.00 0.00 0.00 71 1007.7
20260505063030 18 0 0.0 0.0 0.00 0.00 0.00 71 1008.1
20260505061546 18 0 0.0 0.0 0.00 0.00 0.00 70 1008.2
20260505060028 18 0 0.0 0.0 0.00 0.00 0.00 70 1008.7
20260505054547 18 0 0.0 0.0 0.00 0.00 0.00 69 1008.4
20260505053033 18 0 0.0 0.0 0.00 0.00 0.00 69 1008.6
20260505051533 18 0 0.0 1.6 0.00 0.00 0.00 69 1008.7
20260505041527 19 0 0.0 1.6 0.00 0.00 0.00 68 1009.1
20260505040030 20 189 0.0 1.6 0.00 0.00 0.00 66 1009.2
20260505034530 20 0 0.0 1.6 0.00 0.00 0.00 65 1009.3
20260505033030 20 0 0.0 0.0 0.00 0.00 0.00 65 1009.2
20260505031541 20 0 0.0 3.2 0.00 0.00 0.00 64 1009.2
20260505030027 20 0 0.0 3.2 0.00 0.00 0.00 64 1008.9
20260505024534 21 161 0.0 1.6 0.00 0.00 0.00 63 1008.7
20260505023030 21 0 0.0 1.6 0.00 0.00 0.00 62 1008.4
20260505021528 21 0 0.0 1.6 0.00 0.00 0.00 61 1008.3
20260505020033 21 0 0.0 1.6 0.00 0.00 0.00 61 1008.2
20260505014535 21 167 0.0 1.6 0.00 0.00 0.00 60 1008.1
20260505013029 22 0 0.0 1.6 0.00 0.00 0.00 60 1008.0
20260505011533 22 0 0.0 1.6 0.00 0.00 0.00 59 1007.9
20260505010030 22 181 0.0 1.6 0.00 0.00 0.00 58 1007.9
20260505004542 23 0 0.0 1.6 0.00 0.00 0.00 56 1007.9
20260505003029 23 198 0.0 1.6 0.00 0.00 0.00 55 1007.8
20260505001526 24 0 0.0 1.6 0.00 0.00 0.00 53 1007.9
20260505000041 25 0 0.0 3.2 0.00 0.00 0.00 52 1007.8
20260504234528 25 203 1.6 4.8 0.00 0.00 0.00 50 1007.7
20260504233028 25 209 1.6 6.4 0.00 0.00 0.00 50 1008.1
20260504231531 26 250 1.6 6.4 0.00 0.00 0.00 48 1008.3
20260504230028 26 195 0.0 3.2 0.00 0.00 0.00 48 1008.5
20260504224527 27 203 1.6 6.4 0.00 0.00 0.00 47 1008.7
20260504223030 27 206 1.6 6.4 0.00 0.00 0.00 44 1008.6
20260504221528 28 245 0.0 4.8 0.00 0.00 0.00 45 1008.8
20260504220028 28 200 1.6 6.4 0.00 0.00 0.00 45 1009.0
20260504214529 28 0 1.6 4.8 0.00 0.00 0.00 43 1009.1
20260504213028 28 209 1.6 6.4 0.00 0.00 0.00 43 1009.2
20260504211527 28 193 1.6 4.8 0.00 0.00 0.00 42 1009.3
20260504210030 29 201 3.2 9.7 0.00 0.00 0.00 43 1009.8
20260504204527 29 210 1.6 6.4 0.00 0.00 0.00 43 1010.0
20260504203031 28 224 1.6 6.4 0.00 0.00 0.00 44 1010.0
20260504201529 29 281 1.6 9.7 0.00 0.00 0.00 42 1010.3
20260504200030 29 184 3.2 4.8 0.00 0.00 0.00 41 1010.7
20260504194527 28 192 1.6 4.8 0.00 0.00 0.00 42 1010.8
20260504193028 28 205 1.6 6.4 0.00 0.00 0.00 45 1011.0
20260504191527 28 239 3.2 6.4 0.00 0.00 0.00 43 1011.3
20260504190030 28 240 1.6 6.4 0.00 0.00 0.00 44 1011.6
20260504184530 28 223 3.2 6.4 0.00 0.00 0.00 42 1011.6
20260504183029 28 242 1.6 8.0 0.00 0.00 0.00 44 1011.7
20260504181532 27 270 3.2 8.0 0.00 0.00 0.00 44 1011.8
20260504180029 27 242 1.6 4.8 0.00 0.00 0.00 47 1011.9
20260504174530 27 245 1.6 6.4 0.00 0.00 0.00 44 1012.3
20260504173029 26 195 3.2 8.0 0.00 0.00 0.00 44 1012.8
20260504171528 26 257 4.8 9.7 0.00 0.00 0.00 44 1012.8